Simultaneous Nadir Overpasses (SNOs) Predictions

Prediction of SNOs between GOES-15 and LANDSAT-8 Satellite Orbit:

Table of predicted SNOs for the next 14.0 days since TLE Epoch: 3/28/2020
Index Date Time (GOES-15) GOES-15 Lat,Lon LANDSAT-8 Lat,Lon Distance(km) Time Diff (sec)
1 03/29/2020 18:36:17 0.29,-127.98 -0.07,-126.40 180.48 80
2 03/30/2020 07:00:20 -0.30,-127.91 -1.09,-131.58 417.28 80
3 04/01/2020 06:48:08 -0.29,-127.84 -0.43,-128.63 89.27 80
4 04/03/2020 06:33:15 -0.28,-127.76 0.18,-125.67 238.25 80
5 04/03/2020 18:54:30 0.29,-127.79 0.93,-130.82 344.66 80
6 04/05/2020 18:42:17 0.29,-127.70 0.32,-127.86 17.53 80
7 04/07/2020 18:32:44 0.29,-127.62 -0.29,-124.90 309.40 80
8 04/08/2020 06:54:08 -0.29,-127.55 -0.80,-130.09 288.71 80
9 04/10/2020 06:39:14 -0.29,-127.45 -0.25,-127.12 37.74 80




NCC Satellite Simultaneous Nadir Overpasses (SNOs) Prediction Service
